CST,Max TemperatureF,Mean TemperatureF,Min TemperatureF,Max Dew PointF,MeanDew PointF,Min DewpointF,Max Humidity, Mean Humidity, Min Humidity, Max Sea Level PressureIn, Mean Sea Level PressureIn, Min Sea Level PressureIn, Max VisibilityMiles, Mean VisibilityMiles, Min VisibilityMiles, Max Wind SpeedMPH, Mean Wind SpeedMPH, Max Gust SpeedMPH,PrecipitationIn, CloudCover, Events, WindDirDegrees
2013-12-1,57,42,28,38,33,27,96,74,47,30.15,30.06,29.91,10,9,4,5,1,,0.00,0,,336
2013-12-2,55,44,34,46,39,31,100,83,64,29.90,29.77,29.69,10,8,0,6,1,,0.00,1,Fog,170
2013-12-3,57,48,39,52,47,39,100,97,81,29.72,29.69,29.65,10,3,0,12,4,,0.00,6,Fog,152
2013-12-4,66,56,43,55,50,35,100,90,63,29.87,29.66,29.52,10,5,0,15,6,26,0.00,7,Fog,163
2013-12-5,41,31,21,34,21,15,93,78,63,30.32,30.16,29.88,10,8,1,20,13,25,0.09,8,Rain-Snow,323
2013-12-6,23,20,16,18,13,4,86,73,59,30.63,30.42,30.31,10,6,1,16,12,,0.01,8,Snow,350
2013-12-7,21,16,10,10,7,4,77,65,53,30.75,30.64,30.49,10,10,10,13,8,,0.00,1,,23
2013-12-8,28,24,19,25,20,12,96,90,68,30.47,30.23,30.05,10,4,1,9,7,,0.01,8,Rain-Snow,116
2013-12-9,28,24,21,25,16,11,88,71,60,30.36,30.26,30.13,10,10,4,16,9,23,0.00,5,Snow,296
2013-12-10,35,26,16,16,13,9,88,65,42,30.35,30.31,30.27,10,10,10,14,6,17,0.00,1,,248
2013-12-11,33,22,10,22,11,1,95,68,48,30.70,30.51,30.34,10,10,10,18,6,,0.00,0,,331
2013-12-12,33,20,7,16,9,1,80,62,43,30.67,30.50,30.31,10,10,10,8,4,,0.00,0,,173
2013-12-13,34,25,16,32,26,13,100,88,64,30.28,30.10,29.98,10,7,2,12,5,,0.24,5,Rain-Snow,150
2013-12-14,34,31,28,32,31,25,100,97,87,30.16,29.93,29.84,10,4,0,21,6,28,0.31,8,Fog-Snow,330
2013-12-15,33,28,24,27,23,19,93,82,75,30.24,30.15,30.06,10,10,7,15,9,21,0.00,5,,242
2013-12-16,37,32,26,30,27,24,96,87,73,30.15,30.07,30.01,10,6,4,14,3,,0.00,2,,359
2013-12-17,41,33,25,29,25,20,96,76,55,30.30,30.21,30.14,10,8,4,20,6,21,0.00,3,,287
2013-12-18,48,34,21,37,25,18,89,66,42,30.30,30.13,29.96,10,10,10,15,5,24,0.00,0,,178
2013-12-19,59,50,41,49,44,36,89,80,64,29.96,29.89,29.80,10,10,10,15,8,22,0.00,4,,166
2013-12-20,70,54,37,57,47,36,93,84,63,29.88,29.80,29.69,10,8,2,16,9,22,0.43,6,Rain,264
2013-12-21,37,35,33,36,33,32,100,96,92,29.83,29.75,29.60,10,8,3,12,8,,0.84,8,Rain,358
2013-12-22,35,32,28,34,30,23,100,89,78,30.30,29.94,29.69,10,9,5,17,8,23,0.04,8,Rain-Snow,271
2013-12-23,27,20,12,23,14,4,85,74,63,30.62,30.52,30.31,10,10,10,18,13,25,0.00,6,,308
2013-12-24,23,16,8,12,4,-4,73,60,38,30.66,30.56,30.39,10,10,10,16,9,,0.00,0,,181
2013-12-25,36,28,21,29,24,13,87,74,66,30.41,30.32,30.26,10,10,10,12,5,,0.00,7,,237
2013-12-26,48,34,21,28,25,21,100,71,36,30.41,30.34,30.28,10,9,5,9,4,,0.00,0,,198
2013-12-27,53,40,26,32,28,23,92,69,40,30.41,30.33,30.27,10,10,9,8,3,,0.00,0,,186
2013-12-28,55,41,27,33,29,24,89,63,36,30.26,30.12,29.93,10,10,10,13,5,17,0.00,0,,172
2013-12-29,39,28,18,32,23,7,88,77,62,30.30,30.08,29.88,10,10,7,21,11,29,0.00,5,,311
2013-12-30,26,18,10,15,5,0,70,55,37,30.40,30.32,30.26,10,10,10,12,6,,0.00,2,,332
2013-12-31,42,32,23,25,19,14,72,58,45,30.43,30.29,30.20,10,10,10,12,5,,0.00,0,,203